When you browse on this site, cookies collect data to enhance your experience and personalize the content and advertising you see.
Visit our Privacy Policy to learn more. By continuing to use the site, you agree to this use of cookies and data.
  • In Lithuania
  • List of Countries
  • For 7 days
  • Water Temperature
  • Weather Map
  • Weather Widgets
  • user-avatar
    Login

    Hourly Weather Biskira

    Today, 26 May, Tuesday

    Time Temperature Precipitation Wind Pressure Humidity
    00:00 +30°C° 0 mm 4 mps 756 mmHg 17%
    01:00 +29°C° 0 mm 4 mps 756 mmHg 19%
    02:00 +28°C° 0 mm 3 mps 756 mmHg 20%
    03:00 +27°C° 0 mm 2 mps 756 mmHg 21%
    04:00 +27°C° 0 mm 2 mps 756 mmHg 21%
    05:00 +27°C° 0 mm 1 mps 756 mmHg 21%
    06:00 +27°C° 0 mm 1 mps 756 mmHg 21%
    07:00 +28°C° 0 mm 1 mps 757 mmHg 19%
    08:00 +29°C° 0 mm 2 mps 757 mmHg 18%
    09:00 +31°C° 0 mm 2 mps 757 mmHg 17%
    10:00 +32°C° 0 mm 2 mps 757 mmHg 16%
    11:00 +34°C° 0 mm 2 mps 756 mmHg 15%
    12:00 +35°C° 0 mm 2 mps 756 mmHg 14%
    13:00 +36°C° 0 mm 2 mps 755 mmHg 13%
    14:00 +36°C° 0 mm 2 mps 755 mmHg 13%
    15:00 +36°C° 0 mm 1 mps 754 mmHg 13%
    16:00 +37°C° 0 mm 2 mps 754 mmHg 13%
    17:00 +37°C° 0 mm 2 mps 754 mmHg 12%
    18:00 +37°C° 0 mm 2 mps 754 mmHg 12%
    19:00 +36°C° 0 mm 2 mps 754 mmHg 15%
    20:00 +34°C° 0 mm 2 mps 755 mmHg 17%
    21:00 +32°C° 0 mm 2 mps 755 mmHg 19%
    22:00 +32°C° 0 mm 2 mps 755 mmHg 20%
    23:00 +31°C° 0 mm 2 mps 755 mmHg 21%

    Tomorrow, 27 May, Wednesday

    Time Temperature Precipitation Wind Pressure Humidity
    00:00 +30°C° 0 mm 2 mps 755 mmHg 21%
    01:00 +29°C° 0 mm 4 mps 755 mmHg 28%
    02:00 +28°C° 0 mm 5 mps 755 mmHg 36%
    03:00 +26°C° 0 mm 7 mps 755 mmHg 43%
    04:00 +26°C° 0 mm 6 mps 755 mmHg 42%
    05:00 +26°C° 0 mm 6 mps 755 mmHg 42%
    06:00 +26°C° 0 mm 5 mps 755 mmHg 41%
    07:00 +28°C° 0 mm 5 mps 756 mmHg 38%
    08:00 +29°C° 0 mm 4 mps 756 mmHg 34%
    09:00 +30°C° 0 mm 4 mps 756 mmHg 31%
    10:00 +32°C° 0 mm 4 mps 756 mmHg 28%
    11:00 +33°C° 0 mm 3 mps 755 mmHg 26%
    12:00 +34°C° 0 mm 3 mps 755 mmHg 23%
    13:00 +35°C° 0 mm 2 mps 754 mmHg 22%
    14:00 +36°C° 0 mm 2 mps 754 mmHg 20%
    15:00 +35°C° 0 mm 1 mps 753 mmHg 19%
    16:00 +35°C° 0 mm 1 mps 753 mmHg 19%
    17:00 +36°C° 0 mm 2 mps 753 mmHg 19%
    18:00 +36°C° 0 mm 2 mps 754 mmHg 19%
    19:00 +35°C° 0 mm 3 mps 754 mmHg 21%
    20:00 +34°C° 0 mm 5 mps 755 mmHg 23%
    21:00 +33°C° 0 mm 6 mps 755 mmHg 25%
    22:00 +32°C° 0 mm 7 mps 755 mmHg 29%
    23:00 +29°C° 0 mm 8 mps 755 mmHg 34%

    Day after tomorrow, 28 May, Thursday

    Time Temperature Precipitation Wind Pressure Humidity
    00:00 +27°C° 0 mm 9 mps 756 mmHg 38%
    01:00 +27°C° 0 mm 9 mps 756 mmHg 40%
    02:00 +26°C° 0 mm 8 mps 756 mmHg 41%
    03:00 +24°C° 0 mm 7 mps 756 mmHg 43%
    04:00 +24°C° 0 mm 7 mps 756 mmHg 44%
    05:00 +24°C° 0 mm 7 mps 756 mmHg 44%
    06:00 +24°C° 0 mm 6 mps 757 mmHg 45%
    07:00 +26°C° 0 mm 6 mps 757 mmHg 40%
    08:00 +27°C° 0 mm 6 mps 757 mmHg 36%
    09:00 +28°C° 0 mm 6 mps 757 mmHg 31%
    10:00 +29°C° 0.1 mm 6 mps 756 mmHg 30%
    11:00 +30°C° 0.1 mm 6 mps 756 mmHg 29%
    12:00 +30°C° 0.1 mm 6 mps 756 mmHg 28%
    13:00 +32°C° 0.2 mm 5 mps 755 mmHg 28%
    14:00 +32°C° 0.2 mm 4 mps 755 mmHg 28%
    15:00 +32°C° 0.2 mm 4 mps 754 mmHg 28%
    16:00 +32°C° 0.1 mm 4 mps 754 mmHg 29%
    17:00 +31°C° 0.1 mm 3 mps 754 mmHg 30%
    18:00 +30°C° 0.1 mm 3 mps 754 mmHg 31%
    19:00 +30°C° 0.2 mm 3 mps 754 mmHg 32%
    20:00 +30°C° 0.2 mm 4 mps 754 mmHg 33%
    21:00 +29°C° 0.2 mm 4 mps 754 mmHg 35%
    22:00 +29°C° 0.1 mm 3 mps 754 mmHg 36%
    23:00 +28°C° 0.1 mm 3 mps 754 mmHg 38%

    29 May, Friday

    Time Temperature Precipitation Wind Pressure Humidity
    00:00 +28°C° 0.1 mm 2 mps 754 mmHg 39%
    01:00 +27°C° 0.1 mm 3 mps 754 mmHg 40%
    02:00 +27°C° 0.1 mm 3 mps 754 mmHg 40%
    03:00 +26°C° 0.1 mm 3 mps 754 mmHg 41%
    04:00 +26°C° 0 mm 4 mps 754 mmHg 40%
    05:00 +26°C° 0 mm 4 mps 754 mmHg 40%
    06:00 +25°C° 0 mm 4 mps 754 mmHg 39%
    07:00 +26°C° 0.2 mm 4 mps 754 mmHg 38%
    08:00 +26°C° 0.2 mm 4 mps 754 mmHg 38%
    09:00 +27°C° 0.2 mm 4 mps 754 mmHg 37%
    10:00 +27°C° 0.3 mm 3 mps 753 mmHg 37%
    11:00 +28°C° 0.3 mm 3 mps 753 mmHg 36%
    12:00 +29°C° 0.3 mm 2 mps 753 mmHg 36%
    13:00 +29°C° 0.2 mm 2 mps 752 mmHg 35%
    14:00 +30°C° 0.2 mm 2 mps 751 mmHg 34%
    15:00 +31°C° 0.2 mm 2 mps 751 mmHg 33%
    16:00 +31°C° 0.2 mm 2 mps 751 mmHg 33%
    17:00 +30°C° 0.2 mm 2 mps 751 mmHg 34%
    18:00 +30°C° 0.2 mm 2 mps 751 mmHg 34%
    19:00 +30°C° 0 mm 2 mps 751 mmHg 36%
    20:00 +30°C° 0 mm 1 mps 752 mmHg 37%
    21:00 +29°C° 0 mm 1 mps 752 mmHg 38%
    22:00 +29°C° 0 mm 1 mps 752 mmHg 39%
    23:00 +28°C° 0 mm 2 mps 751 mmHg 39%

    30 May, Saturday

    Time Temperature Precipitation Wind Pressure Humidity
    00:00 +28°C° 0 mm 2 mps 751 mmHg 40%
    01:00 +27°C° 0 mm 2 mps 751 mmHg 40%
    02:00 +27°C° 0 mm 2 mps 751 mmHg 41%
    03:00 +26°C° 0 mm 3 mps 750 mmHg 41%
    04:00 +26°C° 0.1 mm 4 mps 751 mmHg 41%
    05:00 +26°C° 0.1 mm 4 mps 751 mmHg 42%
    06:00 +26°C° 0.1 mm 5 mps 751 mmHg 42%
    07:00 +27°C° 0.1 mm 5 mps 751 mmHg 40%
    08:00 +28°C° 0.1 mm 6 mps 751 mmHg 38%
    09:00 +30°C° 0.1 mm 6 mps 751 mmHg 35%
    10:00 +32°C° 0.1 mm 6 mps 751 mmHg 33%
    11:00 +33°C° 0.1 mm 5 mps 751 mmHg 30%
    12:00 +34°C° 0.1 mm 5 mps 750 mmHg 28%
    13:00 +35°C° 0 mm 4 mps 750 mmHg 26%
    14:00 +35°C° 0 mm 4 mps 750 mmHg 25%
    15:00 +36°C° 0 mm 3 mps 749 mmHg 24%
    16:00 +35°C° 0.1 mm 3 mps 749 mmHg 25%
    17:00 +35°C° 0.1 mm 2 mps 749 mmHg 25%
    18:00 +35°C° 0.1 mm 2 mps 749 mmHg 26%
    19:00 +34°C° 0 mm 2 mps 749 mmHg 28%
    20:00 +33°C° 0 mm 1 mps 750 mmHg 30%
    21:00 +32°C° 0 mm 1 mps 750 mmHg 32%
    22:00 +32°C° 0 mm 1 mps 750 mmHg 33%
    23:00 +31°C° 0 mm 1 mps 750 mmHg 33%

    31 May, Sunday

    Time Temperature Precipitation Wind Pressure Humidity
    00:00 +31°C° 0 mm 1 mps 750 mmHg 34%
    01:00 +29°C° 0 mm 2 mps 750 mmHg 38%
    02:00 +28°C° 0 mm 3 mps 750 mmHg 43%
    03:00 +27°C° 0 mm 4 mps 750 mmHg 47%
    04:00 +27°C° 0 mm 4 mps 750 mmHg 46%
    05:00 +27°C° 0 mm 3 mps 750 mmHg 45%
    06:00 +28°C° 0 mm 2 mps 751 mmHg 44%
    07:00 +29°C° 0 mm 3 mps 751 mmHg 41%
    08:00 +30°C° 0 mm 3 mps 751 mmHg 38%
    09:00 +31°C° 0 mm 3 mps 751 mmHg 35%
    10:00 +33°C° 0 mm 3 mps 751 mmHg 32%
    11:00 +34°C° 0 mm 3 mps 751 mmHg 29%
    12:00 +35°C° 0 mm 3 mps 751 mmHg 27%
    13:00 +36°C° 0 mm 3 mps 750 mmHg 25%
    14:00 +37°C° 0 mm 2 mps 750 mmHg 24%
    15:00 +37°C° 0 mm 2 mps 749 mmHg 22%
    16:00 +37°C° 0 mm 2 mps 749 mmHg 22%
    17:00 +37°C° 0 mm 2 mps 749 mmHg 22%
    18:00 +37°C° 0 mm 2 mps 749 mmHg 23%
    19:00 +36°C° 0.1 mm 2 mps 750 mmHg 25%
    20:00 +35°C° 0.1 mm 2 mps 751 mmHg 28%
    21:00 +34°C° 0.1 mm 3 mps 751 mmHg 31%
    22:00 +33°C° 0.1 mm 3 mps 751 mmHg 34%
    23:00 +31°C° 0.1 mm 3 mps 751 mmHg 36%
    Show more